Weather History for Fort Myers, FL

Change the Weather History Date:

Sunday, April 14, 2013

  Actual Average Record
Temperature  
Mean Temperature 80 °F 74 °F  
Max Temperature 90 °F 84 °F 93 °F (1948)
Min Temperature 70 °F 63 °F 48 °F (1932)
Degree Days  
Heating Degree Days 0 0  
Month to date heating degree days 0 0  
Since 1 July heating degree days 201 284  
Cooling Degree Days 15 9  
Month to date cooling degree days 152 110  
Year to date cooling degree days 534 471  
Growing Degree Days 29 (Base 50)    
Moisture  
Dew Point 70 °F    
Average Humidity 75    
Maximum Humidity 97    
Minimum Humidity 50    
Precipitation  
Precipitation 0.00 in 0.07 in 1.63 in (2000)
Month to date precipitation 1.34 1.06  
Year to date precipitation 4.60 8.03  
Sea Level Pressure  
Sea Level Pressure 29.93 in    
Wind  
Wind Speed 7 mph (South)    
Max Wind Speed 18 mph    
Max Gust Speed 25 mph    
Visibility 10 miles    
Events      
T = Trace of Precipitation, MM = Missing Value Source: NWS Daily Summary

Daily Weather History Graph

Daily Weather History Graph

Search for Another Location

Airport:

Trip Planner

Search our weather history database for the weather conditions in past years. The results will help you decide how hot, cold, wet, or windy it might be!

Date:

Astronomy

Apr. 14, 2013 Rise Set
Actual Time 7:04 AM EDT 7:51 PM EDT
Civil Twilight 6:40 AM EDT 8:14 PM EDT
Nautical Twilight 6:13 AM EDT 8:42 PM EDT
Astronomical Twilight 5:44 AM EDT 9:11 PM EDT
Moon 9:56 AM EDT (4/14) 11:46 PM EDT (4/14)
Length of Visible Light 13h 33m
Length of Day
12h 46m
Waxing Crescent, 17% of the Moon is Illuminated
Apr 14
Waxing Crescent
Apr 18
First Quarter
Apr 25
Full
May 2
Last Quarter
May 9
New

Hourly Weather History & Observations

Time (EDT) Temp. Heat Index Dew Point Humidity Pressure Visibility Wind Dir Wind Speed Gust Speed Precip Events Conditions
12:53 AM 75.9 °F - 68.0 °F 76% 29.96 in 10.0 mi North 3.5 mph - N/A   Clear
1:53 AM 73.0 °F - 66.9 °F 81% 29.95 in 10.0 mi Calm Calm - N/A   Clear
2:53 AM 73.9 °F - 66.9 °F 79% 29.94 in 10.0 mi East 3.5 mph - N/A   Clear
3:53 AM 72.0 °F - 68.0 °F 87% 29.93 in 10.0 mi ESE 4.6 mph - N/A   Clear
4:53 AM 71.1 °F - 68.0 °F 90% 29.92 in 10.0 mi Calm Calm - N/A   Clear
5:53 AM 70.0 °F - 68.0 °F 93% 29.92 in 10.0 mi ESE 3.5 mph - N/A   Clear
6:53 AM 70.0 °F - 68.0 °F 93% 29.92 in 10.0 mi ESE 6.9 mph - N/A   Clear
7:53 AM 71.1 °F - 68.0 °F 90% 29.94 in 10.0 mi ESE 5.8 mph - N/A   Clear
8:53 AM 73.9 °F - 70.0 °F 87% 29.94 in 10.0 mi SE 5.8 mph - N/A   Clear
9:20 AM 75.2 °F - 71.6 °F 89% 29.94 in 10.0 mi SE 8.1 mph - N/A   Scattered Clouds
9:27 AM 75.2 °F - 71.6 °F 89% 29.94 in 10.0 mi SSE 5.8 mph - N/A   Mostly Cloudy
9:53 AM 78.1 °F - 72.0 °F 81% 29.95 in 10.0 mi South 6.9 mph - N/A   Mostly Cloudy
10:12 AM 78.8 °F - 71.6 °F 78% 29.94 in 10.0 mi SSE 8.1 mph - N/A   Partly Cloudy
10:53 AM 82.9 °F 87.5 °F 71.1 °F 67% 29.96 in 10.0 mi South 10.4 mph - N/A   Partly Cloudy
11:53 AM 86.0 °F 90.7 °F 70.0 °F 59% 29.95 in 10.0 mi SSW 10.4 mph - N/A   Scattered Clouds
12:53 PM 86.0 °F 92.2 °F 72.0 °F 63% 29.94 in 10.0 mi SW 10.4 mph 16.1 mph N/A   Mostly Cloudy
1:53 PM 88.0 °F 93.8 °F 71.1 °F 57% 29.92 in 10.0 mi WSW 8.1 mph - N/A   Clear
2:53 PM 88.0 °F 93.8 °F 71.1 °F 57% 29.90 in 10.0 mi SW 11.5 mph - N/A   Clear
4:53 PM 88.0 °F 90.3 °F 66.0 °F 48% 29.85 in 10.0 mi SSW 13.8 mph 21.9 mph N/A   Clear
5:53 PM 86.0 °F 88.2 °F 66.0 °F 51% 29.88 in 10.0 mi SSW 11.5 mph 18.4 mph N/A   Clear
6:53 PM 84.0 °F 87.0 °F 68.0 °F 58% 29.88 in 10.0 mi SSW 11.5 mph 18.4 mph N/A   Clear
7:53 PM 81.0 °F 84.1 °F 69.1 °F 67% 29.90 in 10.0 mi SSW 9.2 mph - N/A   Clear
8:53 PM 79.0 °F - 72.0 °F 79% 29.92 in 10.0 mi SSW 9.2 mph - N/A   Clear
9:53 PM 78.1 °F - 72.0 °F 81% 29.94 in 10.0 mi SSW 5.8 mph - N/A   Clear
10:53 PM 78.1 °F - 71.1 °F 79% 29.97 in 10.0 mi WSW 3.5 mph - N/A   Clear
11:53 PM 78.1 °F - 70.0 °F 76% 29.97 in 10.0 mi WSW 3.5 mph - N/A   Mostly Cloudy